Location: Huesca
(42.1318°N, 0.4078°W)
Time: 16:09:11
(UTC+02:00)

ACS3 Solar Sail - Pass Details

Date: 21 June 2024
Orbit: 992 x 1023 km, 97.4° (Epoch: 11 July)

Event Time Altitude Azimuth Distance (km) Brightness Sun altitude
Exits shadow 22:40:51 12° 133° (SE) 2,649 6.4 -9.4°
Maximum altitude 22:46:10 38° 69° (ENE) 1,476 5.6 -10.2°
Drops below altitude 10° 22:51:50 10° 3° (N) 2,767 7.8 -10.9°
Sets 22:54:28 0° 356° (N) 3,719 8.7 -11.2°
